Regional Weather Roundup
Issued by NWS Midland/Odessa, TX

Skip options and go directly to product.
Home | Oldest Version | Previous Version | Current Version | All | Graphics & Text | Save Text | Print | Product List | Glossary On

Skip product version selection by date and time.   
731
ASUS44 KMAF 052201
RWRMAF
MIDLAND AREA WEATHER ROUNDUP
NATIONAL WEATHER SERVICE MIDLAND TX
500 PM CDT THU MAY 05 2016

...IN SOUTHWEST TEXAS AND SOUTHEAST NEW MEXICO...

CITY           SKY/WX    TMP DP  RH WIND       PRES   REMARKS
ALPINE         PTSUNNY   83  24  11 SE9       30.16F
ANDREWS        FAIR      87  26  10 S7G17     30.06F
ARTESIA        SUNNY     86  25  10 SE17G24   30.02F
BIG SPRING     MOSUNNY   83  36  18 E9        30.05F
CARLSBAD       SUNNY     88  23   9 SE17G24   30.02F
DRYDEN           N/A     90  27  10 SE13G25   30.00F
FORT STOCKTON  CLOUDY    85  26  11 S13G21    30.04F
GUAD PASS      NOT AVBL
HOBBS          SUNNY     84  25  11 S12G23    30.07F
MARFA          SUNNY     81  27  14 SE10      30.13F
MIDLAND AIRPK  PTSUNNY   87  30  12 SE10G17   30.05F
MIDLAND INTL   PTSUNNY   87  31  13 SE12G22   30.04F
ODESSA         CLOUDY    87  28  12 SE13G22   30.05F
PECOS          CLOUDY    89  25   9 E14       30.00F
PRESIDIO       FAIR      93  33  12 MISG      29.95F
SEMINOLE       SUNNY     86  26  11 SE12G18   30.05F
SNYDER           N/A     85  38  19 S8        30.04F
WINK           CLOUDY    88  26  10 SE10G21   30.00F
$$
...OTHER STATIONS IN TEXAS...

CITY           SKY/WX    TMP DP  RH WIND       PRES   REMARKS
ABILENE        SUNNY     83  47  28 E8        30.03F
AMARILLO       SUNNY     84  34  16 S7        30.03F
AUSTIN         PTSUNNY   85  53  33 E8        29.98F
BROWNSVILLE    SUNNY     87  56  34 E12       29.96F
CORPUS CHRISTI MOSUNNY   91  45  20 CALM      29.95F
DALLAS FTW     MOSUNNY   83  45  26 N7        30.00F
DEL RIO        SUNNY     89  34  14 E7        29.97F
EL PASO        MOSUNNY   89  29  11 SE21      29.97F
HOUSTON INT    MOSUNNY   83  45  26 NW10      29.95F
LUBBOCK        MOSUNNY   87  27  11 W6        30.04F
SAN ANGELO     CLOUDY    86  41  20 CALM      30.01F
SAN ANTONIO    PTSUNNY   85  51  31 W7        29.99F
WACO           SUNNY     83  50  31 N9        29.99F
WICHITA FALLS  NOT AVBL
$$
...OTHER LOCATIONS IN NEW MEXICO...

CITY           SKY/WX    TMP DP  RH WIND       PRES   REMARKS
ALAMAGORDO     MOSUNNY   86  25  10 SE14G23   30.01F
ALBUQUERQUE    MOSUNNY   83  24  11 SW14      30.05F
CANNON AFB     NOT AVBL
CLOVIS         SUNNY     82  27  13 S13G21    30.07F
HOLLOMAN AFB   SUNNY     88  20   8 S16G24    29.99F
ROSWELL        SUNNY     88  21   8 S13       30.03F
RUIDOSO        MOSUNNY   75  21  13 SE16G26   30.20F
SANTA FE       SUNNY     79  21  11 SE8       30.11F
TRUTH OR CONSE MOSUNNY   85  28  12 S20G25    30.01F
TUCUMCARI      SUNNY     87  15   7 S12       30.02F
$$

USA.gov is the U.S. government's official web portal to all federal, state and local government web resources and services.